BAV145 WADD-WBKK

Flight info

Callsign BAV145
Flight time N/A
Altitude 38000
Route DOBMA/N0489F400 M522 ELANG/N0491F390 M522 ELAD
Aircraft B789/H-SDE1E2E3FGHIJ2J3J4J5M1RWXY/LB1D1

Departure

Time 2026-05-08 05:53
Airport Denpasar I Gusti Ngurah Rai International Airport (WADD)

Arrival

Time N/A
Airport Kota Kinabalu International Airport (WBKK)
Time Latitude Longitude Altitude Speed Heading
2026-05-08 05:28 -8.74591 115.16440 11 ft 0 kts 358°
2026-05-08 05:42 -8.74603 115.16441 37 ft 2 kts 358°
2026-05-08 05:43 -8.74666 115.16443 35 ft 2 kts 354°
2026-05-08 05:44 -8.74682 115.16449 34 ft 2 kts 316°
2026-05-08 05:44 -8.74689 115.16464 35 ft 2 kts 283°
2026-05-08 05:44 -8.74691 115.16480 34 ft 2 kts 269°
2026-05-08 05:44 -8.74690 115.16497 37 ft 2 kts 265°
2026-05-08 05:45 -8.74689 115.16505 37 ft 0 kts 265°
2026-05-08 05:46 -8.74689 115.16502 36 ft 1 kts 266°
2026-05-08 05:46 -8.74689 115.16492 37 ft 2 kts 268°
2026-05-08 05:46 -8.74690 115.16473 33 ft 4 kts 268°
2026-05-08 05:46 -8.74691 115.16438 36 ft 6 kts 268°
2026-05-08 05:47 -8.74693 115.16395 38 ft 7 kts 268°
2026-05-08 05:47 -8.74694 115.16345 38 ft 8 kts 268°
2026-05-08 05:47 -8.74696 115.16289 38 ft 8 kts 268°
2026-05-08 05:47 -8.74698 115.16227 38 ft 9 kts 268°
2026-05-08 05:48 -8.74701 115.16159 38 ft 10 kts 267°
2026-05-08 05:48 -8.74705 115.16084 38 ft 11 kts 267°
2026-05-08 05:48 -8.74708 115.16004 38 ft 12 kts 268°
2026-05-08 05:48 -8.74712 115.15916 38 ft 13 kts 267°
2026-05-08 05:49 -8.74716 115.15822 38 ft 14 kts 268°
2026-05-08 05:49 -8.74720 115.15721 38 ft 15 kts 268°
2026-05-08 05:49 -8.74724 115.15613 38 ft 16 kts 268°
2026-05-08 05:49 -8.74728 115.15515 38 ft 11 kts 268°
2026-05-08 05:50 -8.74732 115.15450 38 ft 7 kts 262°
2026-05-08 05:50 -8.74756 115.15408 37 ft 6 kts 219°
2026-05-08 05:50 -8.74800 115.15394 36 ft 8 kts 185°
2026-05-08 05:50 -8.74859 115.15395 34 ft 9 kts 173°
2026-05-08 05:51 -8.74880 115.15398 34 ft 1 kts 170°
2026-05-08 05:51 -8.74886 115.15400 34 ft 1 kts 162°
2026-05-08 05:51 -8.74894 115.15406 34 ft 2 kts 140°
2026-05-08 05:51 -8.74899 115.15418 34 ft 2 kts 103°
2026-05-08 05:52 -8.74898 115.15431 34 ft 2 kts 85°
2026-05-08 05:52 -8.74898 115.15433 34 ft 0 kts 86°
2026-05-08 05:52 -8.74895 115.15475 34 ft 18 kts 86°
2026-05-08 05:53 -8.74878 115.15887 34 ft 101 kts 88°
2026-05-08 05:53 -8.74834 115.16850 122 ft 162 kts 84°
2026-05-08 05:53 -8.74720 115.17961 1164 ft 160 kts 89°
2026-05-08 05:53 -8.74668 115.19094 2315 ft 159 kts 89°
2026-05-08 05:54 -8.74608 115.20243 3215 ft 175 kts 88°
2026-05-08 05:54 -8.74530 115.21547 4013 ft 191 kts 86°
2026-05-08 05:54 -8.74408 115.22949 4719 ft 210 kts 86°
2026-05-08 05:54 -8.74271 115.24449 5550 ft 221 kts 85°
2026-05-08 05:55 -8.74127 115.26046 6305 ft 232 kts 88°
2026-05-08 05:55 -8.74031 115.27686 7174 ft 237 kts 87°
2026-05-08 05:55 -8.73969 115.29389 7895 ft 248 kts 93°
2026-05-08 05:55 -8.74169 115.31159 8600 ft 262 kts 95°
2026-05-08 05:56 -8.74242 115.33064 9275 ft 281 kts 89°
2026-05-08 05:56 -8.74127 115.35095 9983 ft 298 kts 85°
2026-05-08 05:56 -8.73987 115.37238 10663 ft 313 kts 87°
2026-05-08 05:56 -8.73897 115.39489 11362 ft 328 kts 88°
2026-05-08 05:57 -8.73819 115.41844 12008 ft 344 kts 88°
2026-05-08 05:57 -8.73719 115.44319 12632 ft 360 kts 88°
2026-05-08 05:57 -8.73605 115.46896 13287 ft 374 kts 88°
2026-05-08 05:57 -8.73339 115.49552 13905 ft 387 kts 75°
2026-05-08 05:58 -8.72239 115.52057 14529 ft 398 kts 56°
2026-05-08 05:58 -8.70418 115.54200 15142 ft 407 kts 45°
2026-05-08 05:58 -8.68332 115.56177 15768 ft 416 kts 41°
2026-05-08 05:58 -8.66180 115.58168 16376 ft 424 kts 44°
2026-05-08 05:59 -8.64087 115.60295 17023 ft 430 kts 46°
2026-05-08 05:59 -8.61998 115.62482 17646 ft 435 kts 46°
2026-05-08 05:59 -8.59837 115.64651 18259 ft 439 kts 44°
2026-05-08 05:59 -8.57507 115.66652 18820 ft 442 kts 33°
2026-05-08 06:00 -8.54757 115.68063 19345 ft 446 kts 18°
2026-05-08 06:00 -8.51740 115.68795 19878 ft 447 kts
2026-05-08 06:00 -8.48635 115.68798 20424 ft 447 kts 352°
2026-05-08 06:00 -8.45577 115.68440 20963 ft 450 kts 352°
2026-05-08 06:01 -8.42451 115.68195 21508 ft 452 kts 355°
2026-05-08 06:01 -8.39301 115.67999 22050 ft 455 kts 355°
2026-05-08 06:01 -8.36137 115.67787 22607 ft 457 kts 355°
2026-05-08 06:01 -8.32951 115.67596 23164 ft 459 kts 355°
2026-05-08 06:02 -8.29758 115.67414 23685 ft 461 kts 355°
2026-05-08 06:02 -8.26556 115.67221 24147 ft 461 kts 355°
2026-05-08 06:02 -8.23350 115.67022 24627 ft 462 kts 355°
2026-05-08 06:02 -8.20116 115.66825 24824 ft 470 kts 355°
2026-05-08 06:03 -8.16805 115.66627 24837 ft 483 kts 355°
2026-05-08 06:03 -8.13418 115.66424 24843 ft 493 kts 355°
2026-05-08 06:03 -8.09968 115.66215 24936 ft 498 kts 355°
2026-05-08 06:03 -8.06517 115.66006 25357 ft 495 kts 355°
2026-05-08 06:04 -8.03085 115.65799 25824 ft 493 kts 355°
2026-05-08 06:04 -7.99669 115.65594 26290 ft 491 kts 355°
2026-05-08 06:04 -7.96261 115.65388 26754 ft 489 kts 355°
2026-05-08 06:04 -7.92868 115.65182 27223 ft 488 kts 355°
2026-05-08 06:05 -7.89481 115.64976 27694 ft 487 kts 355°
2026-05-08 06:05 -7.86103 115.64771 28179 ft 486 kts 355°
2026-05-08 06:05 -7.82734 115.64568 28673 ft 485 kts 355°
2026-05-08 06:05 -7.79369 115.64365 29157 ft 484 kts 355°
2026-05-08 06:06 -7.76011 115.64161 29679 ft 483 kts 355°
2026-05-08 06:06 -7.72659 115.63957 30148 ft 482 kts 355°
2026-05-08 06:06 -7.69319 115.63756 30571 ft 480 kts 355°
2026-05-08 06:06 -7.65989 115.63555 30998 ft 480 kts 355°
2026-05-08 06:07 -7.62652 115.63352 31328 ft 481 kts 355°
2026-05-08 06:07 -7.59327 115.63051 31682 ft 479 kts 347°
2026-05-08 06:07 -7.56128 115.62152 32086 ft 476 kts 336°
2026-05-08 06:07 -7.53179 115.60659 32491 ft 474 kts 326°
2026-05-08 06:08 -7.50506 115.58736 32888 ft 472 kts 323°
2026-05-08 06:08 -7.47857 115.56774 33260 ft 472 kts 323°
2026-05-08 06:08 -7.45226 115.54799 33631 ft 472 kts 323°
2026-05-08 06:08 -7.42597 115.52826 33984 ft 471 kts 323°
2026-05-08 06:09 -7.39984 115.50880 34306 ft 471 kts 323°
2026-05-08 06:09 -7.37352 115.48921 34639 ft 470 kts 323°
2026-05-08 06:09 -7.34719 115.46955 34808 ft 474 kts 323°
2026-05-08 06:10 -7.29345 115.42942 34818 ft 487 kts 323°
2026-05-08 06:10 -7.23848 115.38844 34828 ft 494 kts 323°
2026-05-08 06:11 -7.18341 115.34737 35037 ft 489 kts 323°
2026-05-08 06:11 -7.15608 115.32700 35320 ft 488 kts 323°
2026-05-08 06:11 -7.12876 115.30664 35603 ft 488 kts 323°
2026-05-08 06:11 -7.10151 115.28633 35877 ft 487 kts 323°
2026-05-08 06:12 -7.07427 115.26603 36151 ft 487 kts 322°
2026-05-08 06:12 -7.04708 115.24578 36437 ft 486 kts 322°
2026-05-08 06:12 -7.02029 115.22582 36731 ft 485 kts 322°
2026-05-08 06:12 -6.99318 115.20563 37006 ft 484 kts 322°
2026-05-08 06:13 -6.96609 115.18545 37239 ft 484 kts 322°
2026-05-08 06:13 -6.93901 115.16529 37476 ft 484 kts 322°
2026-05-08 06:13 -6.91195 115.14514 37731 ft 484 kts 322°
2026-05-08 06:13 -6.88491 115.12502 37976 ft 483 kts 322°
2026-05-08 06:14 -6.85758 115.10536 38239 ft 483 kts 328°
2026-05-08 06:14 -6.82754 115.09040 38541 ft 482 kts 339°
2026-05-08 06:14 -6.79527 115.08134 38809 ft 482 kts 350°
2026-05-08 06:14 -6.76195 115.07806 39084 ft 480 kts 355°
2026-05-08 06:15 -6.72864 115.07604 39299 ft 479 kts 355°
2026-05-08 06:15 -6.69536 115.07419 39524 ft 478 kts 355°
2026-05-08 06:15 -6.66223 115.07241 39753 ft 477 kts 355°
2026-05-08 06:16 -6.59553 115.06858 39812 ft 484 kts 355°
2026-05-08 06:16 -6.52779 115.06478 39819 ft 491 kts 355°
2026-05-08 06:17 -6.42519 115.05897 39824 ft 492 kts 355°
2026-05-08 06:17 -6.35742 115.05516 39821 ft 490 kts 355°
2026-05-08 06:18 -6.28935 115.05131 39821 ft 490 kts 355°
2026-05-08 06:18 -6.22127 115.04748 39817 ft 490 kts 355°
2026-05-08 06:19 -6.15314 115.04363 39819 ft 492 kts 355°
2026-05-08 06:19 -6.08440 115.03975 39822 ft 497 kts 355°
2026-05-08 06:20 -6.01529 115.03587 39823 ft 498 kts 355°
2026-05-08 06:20 -5.94599 115.03195 39823 ft 498 kts 355°
2026-05-08 06:21 -5.87672 115.02805 39822 ft 498 kts 355°
2026-05-08 06:21 -5.80745 115.02414 39822 ft 498 kts 355°
2026-05-08 06:22 -5.73816 115.02025 39816 ft 499 kts 355°
2026-05-08 06:22 -5.66877 115.01634 39823 ft 501 kts 355°
2026-05-08 06:23 -5.59907 115.01241 39818 ft 502 kts 355°
2026-05-08 06:23 -5.52925 115.00849 39816 ft 503 kts 355°
2026-05-08 06:24 -5.45939 115.00455 39819 ft 503 kts 355°
2026-05-08 06:24 -5.38962 115.00063 39821 ft 502 kts 355°
2026-05-08 06:25 -5.31974 114.99670 39813 ft 502 kts 355°
2026-05-08 06:25 -5.25049 114.99280 39816 ft 502 kts 355°
2026-05-08 06:26 -5.18079 114.98889 39814 ft 502 kts 355°
2026-05-08 06:26 -5.11114 114.98498 39812 ft 501 kts 356°
2026-05-08 06:27 -5.04162 114.98106 39815 ft 500 kts 356°
2026-05-08 06:27 -4.97208 114.97716 39813 ft 500 kts 356°
2026-05-08 06:28 -4.90256 114.97326 39809 ft 500 kts 356°
2026-05-08 06:28 -4.84439 114.96999 39809 ft 500 kts 356°
2026-05-08 06:29 -4.79111 114.96700 39807 ft 499 kts 356°
2026-05-08 06:29 -4.74163 114.96422 39809 ft 500 kts 356°
2026-05-08 06:30 -4.67261 114.96034 39812 ft 500 kts 356°
2026-05-08 06:30 -4.60315 114.95645 39811 ft 500 kts 356°
2026-05-08 06:31 -4.53364 114.95255 39812 ft 500 kts 356°
2026-05-08 06:31 -4.46411 114.94865 39810 ft 500 kts 356°
2026-05-08 06:32 -4.39467 114.94476 39810 ft 500 kts 356°
2026-05-08 06:32 -4.32521 114.94142 39821 ft 499 kts 359°
2026-05-08 06:33 -4.25570 114.93898 39815 ft 500 kts 357°
2026-05-08 06:33 -4.18606 114.93685 39818 ft 501 kts 358°
2026-05-08 06:34 -4.11642 114.93467 39816 ft 501 kts 358°
2026-05-08 06:34 -4.04679 114.93243 39813 ft 501 kts 358°
2026-05-08 06:35 -3.97714 114.93027 39810 ft 501 kts 358°
2026-05-08 06:35 -3.90750 114.92804 39808 ft 500 kts 358°
2026-05-08 06:36 -3.83787 114.92586 39803 ft 501 kts 358°
2026-05-08 06:36 -3.76825 114.92365 39793 ft 499 kts 358°
2026-05-08 06:37 -3.69881 114.92147 39789 ft 499 kts 358°
2026-05-08 06:37 -3.62990 114.91929 39778 ft 498 kts 358°
2026-05-08 06:38 -3.56078 114.91711 39772 ft 497 kts 358°
2026-05-08 06:38 -3.49109 114.91491 39774 ft 496 kts 358°
2026-05-08 06:39 -3.42253 114.91275 39774 ft 497 kts 358°
2026-05-08 06:39 -3.35337 114.91057 39752 ft 497 kts 358°
2026-05-08 06:40 -3.28433 114.90839 39749 ft 496 kts 358°
2026-05-08 06:40 -3.21533 114.90622 39749 ft 496 kts 358°
2026-05-08 06:41 -3.14639 114.90405 39749 ft 495 kts 358°
2026-05-08 06:41 -3.07743 114.90187 39753 ft 496 kts 358°
2026-05-08 06:42 -3.00848 114.89970 39753 ft 497 kts 358°
2026-05-08 06:42 -2.93928 114.89752 39760 ft 497 kts 359°
2026-05-08 06:43 -2.87013 114.89534 39760 ft 497 kts 359°
2026-05-08 06:43 -2.80098 114.89316 39766 ft 497 kts 359°
2026-05-08 06:44 -2.73181 114.89098 39763 ft 497 kts 359°
2026-05-08 06:44 -2.66258 114.88880 39769 ft 498 kts 359°
2026-05-08 06:45 -2.59333 114.88662 39771 ft 498 kts 359°
2026-05-08 06:45 -2.52409 114.88444 39768 ft 498 kts 359°
2026-05-08 06:46 -2.45485 114.88226 39770 ft 498 kts 359°
2026-05-08 06:46 -2.38560 114.88008 39770 ft 498 kts 359°
2026-05-08 06:47 -2.31685 114.87792 39769 ft 497 kts 359°
2026-05-08 06:47 -2.24764 114.87574 39775 ft 498 kts 359°
2026-05-08 06:48 -2.17841 114.87356 39775 ft 498 kts 359°
2026-05-08 06:48 -2.10920 114.87139 39782 ft 497 kts 359°
2026-05-08 06:49 -2.03995 114.86921 39781 ft 498 kts 359°
2026-05-08 06:49 -1.97074 114.86703 39783 ft 497 kts 359°
2026-05-08 06:50 -1.90150 114.86485 39785 ft 497 kts 359°
2026-05-08 06:50 -1.83295 114.86270 39785 ft 498 kts 359°
2026-05-08 06:51 -1.76350 114.86051 39787 ft 498 kts 359°
2026-05-08 06:51 -1.69806 114.85845 39788 ft 497 kts 359°
2026-05-08 06:52 -1.62879 114.85627 39784 ft 498 kts 359°
2026-05-08 06:52 -1.55940 114.85409 39789 ft 499 kts 359°
2026-05-08 06:53 -1.48993 114.85191 39794 ft 499 kts 359°
2026-05-08 06:53 -1.42104 114.84974 39793 ft 500 kts 359°
2026-05-08 06:54 -1.41136 114.84944 39795 ft 500 kts 359°
2026-05-08 06:54 -1.34902 114.84748 39796 ft 501 kts 359°
2026-05-08 06:55 -1.27969 114.84530 39801 ft 502 kts 359°
2026-05-08 06:55 -1.20993 114.84311 39804 ft 501 kts 359°
2026-05-08 06:56 -1.14069 114.84093 39800 ft 501 kts 359°
2026-05-08 06:56 -1.07106 114.83874 39800 ft 501 kts 359°
2026-05-08 06:57 -1.00140 114.83655 39800 ft 501 kts 359°
2026-05-08 06:57 -0.93195 114.83488 39802 ft 498 kts
2026-05-08 06:58 -0.86355 114.84599 39812 ft 500 kts 12°
2026-05-08 06:58 -0.79518 114.85925 39810 ft 501 kts 11°
2026-05-08 06:59 -0.72667 114.87209 39811 ft 501 kts 12°
2026-05-08 06:59 -0.65816 114.88519 39807 ft 501 kts 12°
2026-05-08 07:00 -0.58972 114.89814 39808 ft 500 kts 12°
2026-05-08 07:00 -0.52141 114.91113 39807 ft 499 kts 12°
2026-05-08 07:01 -0.45305 114.92410 39806 ft 501 kts 12°
2026-05-08 07:01 -0.38449 114.93712 39805 ft 502 kts 12°
2026-05-08 07:02 -0.32095 114.94918 39808 ft 503 kts 12°
2026-05-08 07:02 -0.25213 114.96225 39815 ft 503 kts 12°
2026-05-08 07:03 -0.18333 114.97531 39798 ft 502 kts 12°
2026-05-08 07:03 -0.11470 114.98833 39806 ft 502 kts 11°
2026-05-08 07:04 -0.04595 115.00138 39804 ft 503 kts 11°
2026-05-08 07:04 0.02294 115.01445 39810 ft 504 kts 11°
2026-05-08 07:05 0.09186 115.02753 39812 ft 505 kts 11°
2026-05-08 07:05 0.16084 115.04062 39815 ft 504 kts 11°
2026-05-08 07:06 0.22967 115.05368 39818 ft 503 kts 11°
2026-05-08 07:06 0.29846 115.06674 39812 ft 502 kts 11°
2026-05-08 07:07 0.36711 115.07977 39816 ft 503 kts 11°
2026-05-08 07:07 0.43595 115.09283 39817 ft 504 kts 11°
2026-05-08 07:08 0.50437 115.10581 39820 ft 503 kts 11°
2026-05-08 07:08 0.57315 115.11887 39824 ft 503 kts 11°
2026-05-08 07:09 0.64187 115.13191 39827 ft 503 kts 11°
2026-05-08 07:09 0.71066 115.14497 39827 ft 503 kts 11°
2026-05-08 07:10 0.77930 115.15800 39830 ft 502 kts 11°
2026-05-08 07:10 0.84806 115.17105 39835 ft 503 kts 11°
2026-05-08 07:11 0.91685 115.18411 39837 ft 503 kts 11°
2026-05-08 07:11 0.98556 115.19715 39837 ft 503 kts 11°
2026-05-08 07:12 1.05442 115.21022 39840 ft 504 kts 11°
2026-05-08 07:12 1.12331 115.22330 39835 ft 503 kts 11°
2026-05-08 07:13 1.19209 115.23636 39831 ft 503 kts 12°
2026-05-08 07:13 1.26072 115.24939 39826 ft 502 kts 11°
2026-05-08 07:14 1.32939 115.26243 39826 ft 503 kts 12°
2026-05-08 07:14 1.39810 115.27547 39821 ft 502 kts 11°
2026-05-08 07:15 1.46686 115.28853 39822 ft 503 kts 11°
2026-05-08 07:15 1.53489 115.30145 39828 ft 503 kts 11°
2026-05-08 07:16 1.60412 115.31460 39826 ft 503 kts 11°
2026-05-08 07:16 1.67293 115.32767 39824 ft 503 kts 11°
2026-05-08 07:17 1.74130 115.34065 39822 ft 504 kts 11°
2026-05-08 07:17 1.81017 115.35374 39822 ft 504 kts 11°
2026-05-08 07:18 1.87906 115.36682 39823 ft 504 kts 11°
2026-05-08 07:18 1.94799 115.37992 39825 ft 504 kts 11°
2026-05-08 07:19 2.01686 115.39301 39823 ft 504 kts 11°
2026-05-08 07:19 2.08577 115.40610 39823 ft 504 kts 11°
2026-05-08 07:20 2.15469 115.41920 39817 ft 504 kts 11°
2026-05-08 07:20 2.22362 115.43230 39815 ft 504 kts 11°
2026-05-08 07:21 2.29252 115.44539 39817 ft 504 kts 11°
2026-05-08 07:21 2.36139 115.45849 39819 ft 504 kts 11°
2026-05-08 07:22 2.43028 115.47158 39819 ft 504 kts 11°
2026-05-08 07:22 2.49912 115.48467 39818 ft 503 kts 11°
2026-05-08 07:23 2.56796 115.49776 39817 ft 503 kts 11°
2026-05-08 07:23 2.63676 115.51085 39823 ft 503 kts 11°
2026-05-08 07:24 2.70562 115.52394 39824 ft 503 kts 11°
2026-05-08 07:24 2.77438 115.53702 39830 ft 503 kts 11°
2026-05-08 07:25 2.84304 115.55008 39828 ft 502 kts 11°
2026-05-08 07:26 2.94599 115.56967 39835 ft 502 kts 11°
2026-05-08 07:26 3.01457 115.58272 39834 ft 501 kts 11°
2026-05-08 07:27 3.08291 115.59573 39839 ft 500 kts 11°
2026-05-08 07:27 3.15150 115.60878 39843 ft 501 kts 11°
2026-05-08 07:28 3.21954 115.62174 39847 ft 501 kts 11°
2026-05-08 07:28 3.28791 115.63475 39847 ft 499 kts 11°
2026-05-08 07:29 3.35619 115.64776 39850 ft 499 kts 11°
2026-05-08 07:29 3.42446 115.66076 39857 ft 499 kts 11°
2026-05-08 07:30 3.49262 115.67374 39866 ft 499 kts 11°
2026-05-08 07:30 3.56086 115.68674 39869 ft 499 kts 11°
2026-05-08 07:31 3.62914 115.69975 39870 ft 499 kts 11°
2026-05-08 07:31 3.69731 115.71274 39870 ft 499 kts 11°
2026-05-08 07:32 3.76548 115.72573 39870 ft 499 kts 11°
2026-05-08 07:32 3.83368 115.73873 39872 ft 499 kts 11°
2026-05-08 07:33 3.90184 115.75173 39868 ft 499 kts 11°
2026-05-08 07:33 3.92507 115.75616 39542 ft 506 kts 11°
2026-05-08 07:33 3.95976 115.76277 39029 ft 507 kts 11°
2026-05-08 07:33 3.99432 115.76936 38520 ft 505 kts 11°
2026-05-08 07:34 4.02868 115.77592 37942 ft 501 kts 11°
2026-05-08 07:34 4.06280 115.78243 37375 ft 497 kts 11°
2026-05-08 07:34 4.09630 115.78821 36845 ft 492 kts
2026-05-08 07:34 4.13013 115.79260 36329 ft 489 kts
2026-05-08 07:35 4.16382 115.79739 35817 ft 489 kts
2026-05-08 07:35 4.19762 115.80213 35326 ft 493 kts
2026-05-08 07:35 4.23174 115.80669 34841 ft 497 kts
2026-05-08 07:35 4.26612 115.81128 34368 ft 499 kts
2026-05-08 07:36 4.30053 115.81600 33893 ft 500 kts
2026-05-08 07:36 4.33502 115.82076 33369 ft 500 kts
2026-05-08 07:36 4.36948 115.82545 32896 ft 500 kts
2026-05-08 07:36 4.40403 115.83012 32448 ft 501 kts
2026-05-08 07:37 4.43862 115.83484 31993 ft 502 kts
2026-05-08 07:37 4.47327 115.83958 31541 ft 503 kts
2026-05-08 07:37 4.50793 115.84431 31077 ft 502 kts
2026-05-08 07:37 4.54256 115.84903 30569 ft 499 kts
2026-05-08 07:38 4.57682 115.85369 30074 ft 495 kts
2026-05-08 07:38 4.61079 115.85833 29529 ft 490 kts
2026-05-08 07:38 4.64444 115.86293 28971 ft 486 kts
2026-05-08 07:38 4.67781 115.86747 28410 ft 481 kts
2026-05-08 07:39 4.71089 115.87199 27871 ft 477 kts
2026-05-08 07:39 4.74366 115.87646 27349 ft 473 kts
2026-05-08 07:39 4.77611 115.88089 26893 ft 468 kts
2026-05-08 07:39 4.80808 115.88525 26837 ft 460 kts
2026-05-08 07:40 4.83994 115.88960 26845 ft 465 kts
2026-05-08 07:40 4.87217 115.89401 26835 ft 468 kts
2026-05-08 07:40 4.90445 115.89839 26756 ft 469 kts
2026-05-08 07:40 4.93682 115.90255 26242 ft 466 kts
2026-05-08 07:41 4.96869 115.90649 25748 ft 457 kts
2026-05-08 07:41 4.99992 115.91050 25280 ft 448 kts
2026-05-08 07:41 5.03021 115.91448 24827 ft 440 kts
2026-05-08 07:41 5.06031 115.91838 24384 ft 433 kts
2026-05-08 07:42 5.08988 115.92215 23951 ft 425 kts
2026-05-08 07:42 5.11898 115.92588 23533 ft 418 kts
2026-05-08 07:42 5.14767 115.92960 23066 ft 413 kts
2026-05-08 07:42 5.17608 115.93327 22584 ft 409 kts
2026-05-08 07:43 5.20420 115.93689 22122 ft 407 kts
2026-05-08 07:43 5.23239 115.93759 21691 ft 406 kts 354°
2026-05-08 07:43 5.25996 115.93140 21292 ft 407 kts 341°
2026-05-08 07:43 5.28644 115.92128 20850 ft 408 kts 340°
2026-05-08 07:44 5.31287 115.91088 20353 ft 408 kts 340°
2026-05-08 07:44 5.33919 115.90042 19840 ft 405 kts 340°
2026-05-08 07:44 5.36523 115.89021 19360 ft 401 kts 340°
2026-05-08 07:44 5.39113 115.88013 18879 ft 397 kts 340°
2026-05-08 07:45 5.41678 115.87009 18424 ft 394 kts 340°
2026-05-08 07:45 5.44219 115.86010 17942 ft 391 kts 340°
2026-05-08 07:45 5.46741 115.85021 17425 ft 387 kts 340°
2026-05-08 07:45 5.49226 115.84048 16920 ft 380 kts 340°
2026-05-08 07:46 5.51667 115.83091 16426 ft 374 kts 340°
2026-05-08 07:46 5.54070 115.82149 15949 ft 368 kts 340°
2026-05-08 07:46 5.56436 115.81221 15469 ft 363 kts 340°
2026-05-08 07:46 5.58772 115.80305 15022 ft 359 kts 340°
2026-05-08 07:47 5.61085 115.79398 14578 ft 356 kts 340°
2026-05-08 07:47 5.63385 115.78496 14145 ft 353 kts 340°
2026-05-08 07:47 5.65663 115.77603 13728 ft 350 kts 340°
2026-05-08 07:47 5.67929 115.76714 13259 ft 347 kts 340°
2026-05-08 07:48 5.70176 115.75858 12801 ft 344 kts 345°
2026-05-08 07:48 5.72518 115.75587 12374 ft 339 kts
2026-05-08 07:48 5.74781 115.76144 11970 ft 335 kts 26°
2026-05-08 07:48 5.76768 115.77278 11565 ft 332 kts 32°
2026-05-08 07:49 5.78739 115.78488 11150 ft 331 kts 33°
2026-05-08 07:49 5.80665 115.79695 10725 ft 323 kts 33°
2026-05-08 07:49 5.82557 115.80868 10325 ft 316 kts 32°
2026-05-08 07:49 5.84407 115.82006 9930 ft 309 kts 32°
2026-05-08 07:50 5.86220 115.83123 9519 ft 302 kts 32°
2026-05-08 07:50 5.87995 115.84221 9106 ft 297 kts 32°
2026-05-08 07:50 5.89734 115.85296 8695 ft 289 kts 32°
2026-05-08 07:50 5.91385 115.86315 8265 ft 267 kts 32°
2026-05-08 07:51 5.92961 115.87288 7889 ft 267 kts 32°
2026-05-08 07:51 5.94516 115.88249 7506 ft 257 kts 32°
2026-05-08 07:51 5.96008 115.89171 7153 ft 248 kts 32°
2026-05-08 07:51 5.97462 115.90070 6787 ft 243 kts 32°
2026-05-08 07:52 5.98892 115.90953 6436 ft 240 kts 32°
2026-05-08 07:52 6.00305 115.91826 6080 ft 238 kts 32°
2026-05-08 07:52 6.01711 115.92695 5706 ft 237 kts 32°
2026-05-08 07:52 6.03106 115.93557 5381 ft 235 kts 32°
2026-05-08 07:53 6.04499 115.94418 5075 ft 234 kts 32°
2026-05-08 07:53 6.05882 115.95273 4769 ft 234 kts 32°
2026-05-08 07:53 6.07260 115.96125 4459 ft 232 kts 32°
2026-05-08 07:53 6.08630 115.96971 4193 ft 230 kts 32°
2026-05-08 07:54 6.09975 115.97803 3993 ft 221 kts 32°
2026-05-08 07:54 6.11266 115.98600 4008 ft 215 kts 32°
2026-05-08 07:54 6.12559 115.99400 3851 ft 221 kts 32°
2026-05-08 07:54 6.13860 116.00205 3657 ft 219 kts 32°
2026-05-08 07:55 6.15156 116.01009 3436 ft 217 kts 32°
2026-05-08 07:55 6.16283 116.02000 3201 ft 218 kts 54°
2026-05-08 07:55 6.16746 116.03436 2948 ft 218 kts 85°
2026-05-08 07:55 6.16421 116.04925 2703 ft 217 kts 109°
2026-05-08 07:56 6.15879 116.06251 2494 ft 202 kts 110°
2026-05-08 07:56 6.15349 116.07522 2296 ft 195 kts 109°
2026-05-08 07:56 6.14855 116.08736 2283 ft 182 kts 108°
2026-05-08 07:56 6.14382 116.09921 2289 ft 185 kts 109°
2026-05-08 07:57 6.13902 116.11103 2276 ft 178 kts 108°
2026-05-08 07:57 6.13355 116.12168 2245 ft 171 kts 124°
2026-05-08 07:57 6.12686 116.12612 2185 ft 173 kts 156°
2026-05-08 07:57 6.11502 116.12642 2165 ft 179 kts 196°
2026-05-08 07:58 6.07610 116.11033 2288 ft 170 kts 204°
2026-05-08 07:58 6.07240 116.10874 2303 ft 174 kts 203°
2026-05-08 07:59 6.06124 116.10401 2308 ft 170 kts 203°